Flag for Norway Weather past 2 weeks in Grimstad, Norway

Now
56 °F

Cool.


Feels Like: 55 °F
Forecast: 49 / 64 °F
Wind: 6 mph from North

Location: Torungen Fyr

Current Time: Aug 22, 2014 at 12:11:59 PM

Latest Report: Aug 22, 2014 at 11:00 AM


Visibility: N/A

Pressure: 29.65 "Hg

Humidity: 88%

Dew point: 53 °F

Location of GrimstadLocation

Historic Weather in Grimstad — Graph

°F

Grimstad temperature yesterday

Maximum temperature yesterday: 65 °F (at 2:00 PM)
Minimum temperature yesterday: 56 °F (at 7:00 AM)
Average temperature yesterday: 59 °F

Past Weeks' High & Low Weather Summary

 TemperatureHumidityPressure
High70 °F (Aug 16, 4:00 PM)97% (Aug 8, 5:00 AM)29.92 "Hg (Aug 8, 5:00 AM)
Low51 °F (Aug 18, 6:00 AM)40% (Aug 16, 6:00 PM)29.18 "Hg (Aug 18, 11:00 AM)
Average61 °F78%29.57 "Hg
* Reported Aug 7 10:00 AM — Aug 22 10:00 AM, Grimstad, Weather by CustomWeather, © 2014

Note: Actual official high and low records may vary slightly from our data, if they occured in-between our weather recording intervals... More about our weather records

Advertising

Grimstad weather history for previous 24 hours

 ConditionsComfort  
Time TempWeatherWind HumidityBarometerVisibility
10:00 AM
Aug 22
56 °FCool.2 mph84%29.65 "HgN/A
9:00 AM54 °FCool.2 mph83%29.65 "HgN/A
8:00 AM53 °FCool.2 mph86%29.66 "HgN/A
7:00 AM52 °FCool.2 mph89%29.66 "HgN/A
6:00 AM53 °FCool.1 mph87%29.67 "HgN/A
5:00 AM53 °FCool.3 mph81%29.67 "HgN/A
4:00 AM54 °FCool.5 mph79%29.69 "HgN/A
3:00 AM55 °FCool.5 mph80%29.69 "HgN/A
2:00 AM55 °FCool.6 mph77%29.69 "HgN/A
1:00 AM55 °FCool.6 mph76%29.70 "HgN/A
12:00 AM56 °FCool.8 mph74%29.70 "HgN/A
11:00 PM
Aug 21
57 °FCool.9 mph74%29.70 "HgN/A
10:00 PM58 °FCool.12 mph73%29.70 "HgN/A
9:00 PM58 °FCool.10 mph70%29.70 "HgN/A
8:00 PM60 °FCool.14 mph70%29.70 "HgN/A
7:00 PM61 °FCool.14 mph68%29.69 "HgN/A
6:00 PM61 °FCool.16 mph67%29.69 "HgN/A
5:00 PM62 °FCool.13 mph64%29.68 "HgN/A
4:00 PM64 °FMild.10 mph51%29.68 "HgN/A
3:00 PM65 °FMild.10 mph49%29.68 "HgN/A
2:00 PM65 °FMild.9 mph47%29.68 "HgN/A
12:00 PM63 °FMild.N/A49%29.67 "HgN/A
Weather by CustomWeather, © 2014

See weather overviewHow to use our weather pages